Regional Weather Roundup
Issued by NWS Boston, MA

Current Version | Previous Version | Text Only | Print | Product List | Glossary Off
Versions: 1 2 3 4 5 6 7 8 9 10 11 12 13 14 15 16 17 18 19 20 21 22 23 24 25 26 27 28

000
ASUS41 KBOX 220310
RWRBOX

REGIONAL WEATHER ROUNDUP
NATIONAL WEATHER SERVICE TAUNTON MA
1100 PM EDT SAT OCT 21 2017

NOTE:  "FAIR" INDICATES FEW OR NO CLOUDS BELOW 12,000 FEET WITH NO
SIGNIFICANT WEATHER AND/OR OBSTRUCTIONS TO VISIBILITY.

MAZALL-220400-
EASTERN MASSACHUSETTS

CITY           SKY/WX    TMP DP  RH WIND       PRES   REMARKS
BOSTON         CLOUDY    62  48  60 SW6       30.32R
BEVERLY        CLOUDY    56  47  71 NW3       30.31R
LAWRENCE       PTCLDY    58  47  66 CALM      30.34R
BEDFORD        CLOUDY    54  45  71 CALM      30.32R
BLUE HILL        N/A     61  43  51 W10       30.33R
NORWOOD        PTCLDY    51  47  86 CALM      30.33R
MARSHFIELD     PTCLDY    59  50  72 W6        30.32S
PLYMOUTH       PTCLDY    53  47  79 CALM      30.34S
TAUNTON        CLOUDY    48  46  93 CALM      30.33S
NEW BEDFORD    CLOUDY    53  49  86 SW6       30.33S
$$

MAZALL-220400-
CAPE COD AND THE ISLANDS

CITY           SKY/WX    TMP DP  RH WIND       PRES   REMARKS
FALMOUTH       MOCLDY    54  54 100 S5        30.35S
HYANNIS        MOCLDY    60  55  83 S7        30.34R
CHATHAM        PTCLDY    61  60  97 SW7       30.35S
PROVINCETOWN   MOCLDY    59  55  87 S9        30.34S
NANTUCKET      CLOUDY    60  58  92 SW9       30.36S
MARTHAS VNYRD  CLOUDY    57  56  96 SW6       30.35S
$$

MAZALL-220400-
CENTRAL AND WESTERN MASSACHUSETTS

CITY           SKY/WX    TMP DP  RH WIND       PRES   REMARKS
WORCESTER      CLOUDY    58  39  49 W8        30.35R
FITCHBURG      PTCLDY    58  49  72 NW6       30.34R
ORANGE         PTCLDY    47  47 100 CALM      30.35R
SPRINGFIELD    PTCLDY    47  44  90 CALM      30.33S
WESTFIELD      CLOUDY    48  46  93 CALM      30.34R
NORTH ADAMS    CLOUDY    44  41  89 CALM      30.36R
PITTSFIELD     CLOUDY    46  41  82 CALM      30.35S
$$

RIZALL-220400-
RHODE ISLAND

CITY           SKY/WX    TMP DP  RH WIND       PRES   REMARKS
PROVIDENCE     CLOUDY    56  50  80 W3        30.34S
NEWPORT        CLOUDY    57  52  83 CALM      30.34S
BLOCK ISLAND   PTCLDY    61  58  90 W9        30.36R
SMITHFIELD     CLOUDY    53  47  79 CALM      30.34S
WESTERLY       CLOUDY    54  51  90 CALM      30.35S
$$

CTZALL-220400-
CONNECTICUT

CITY           SKY/WX    TMP DP  RH WIND       PRES   REMARKS
BRADLEY INTL   PTCLDY    51  46  83 CALM      30.34R
HARTFORD       PTCLDY    54  50  86 CALM      30.34S
BRIDGEPORT     CLEAR     57  48  72 CALM      30.35S
DANBURY        CLEAR     47  44  90 CALM      30.37S
GROTON         CLOUDY    52  49  89 CALM      30.34F
NEW HAVEN      CLEAR     50  47  89 CALM      30.35S
CHESTER        FAIR      61  50  67 W6        30.35S
MERIDEN        CLEAR     48  47  96 CALM      30.35S
WILLIMANTIC    CLOUDY    50  47  89 CALM      30.36R
OXFORD         CLEAR     54  45  71 CALM      30.36S
$$

MEZ002-015-021-024-NHZ003-005-008-011-012-014-VTZ005-008-220400-
NORTHERN NEW ENGLAND

CITY           SKY/WX    TMP DP  RH WIND       PRES   REMARKS
PORTLAND ME    MOCLDY    52  49  89 CALM      30.31R
BANGOR ME      CLOUDY    50  42  74 CALM      30.32R
CONCORD NH     PTCLDY    51  47  86 CALM      30.33R
MANCHESTER NH  CLOUDY    57  49  74 CALM      30.31R
NASHUA NH      NOT AVBL
PORTSMOUTH NH  MOCLDY    56  49  77 CALM      30.29S
JAFFREY NH     CLOUDY    50  48  93 CALM      30.36R
KEENE NH       CLOUDY    46  45  96 CALM      30.35S
BURLINGTON VT  CLOUDY    53  48  83 CALM      30.30S
MT. WASHINGTON MOCLDY    43  41  93 NW29        N/A
$$

NYZ052-076-220400-
EASTERN NEW YORK

CITY           SKY/WX    TMP DP  RH WIND       PRES   REMARKS
ALBANY         CLOUDY    49  45  86 CALM      30.33R
NEW YORK CITY  PTCLDY    66  46  48 SW6       30.35S
$$

ANZALL-220400-
MARINE OBSERVATIONS

STATION/POSITION TIME  TEMP    WIND        PRES    VSBY  WAVE
                       AIR SEA DIR/SP/G                  HT/PER
                 (UTC) (F)     (DEG/KT/KT) (MB)    (MI)  (FT/S)
BOSTON BUOY      0150   61 59  220/  6/  8 1026.0          1/ 9
BUZZARDS BAY     0200   63     250/ 14/ 16 1027.8R
NANTUCKET SOUND  0150   62 62  210/ 12/ 14 1027.6          1
MASS BAY-STELLWA 0204   61 59  230/  6/  8 1025.5R         1/ 3
ISLE OF SHOALS   0200   65     250/  8/  8 1025.6R
S OF BLOCK IS    NOT AVBL
$$

......................KEY.........................
  SKY/WX - SKY CONDITION/PRESENT WEATHER
  TMP    - TEMPERATURE IN FAHRENHEIT
  DWPT   - DEWPOINT IN FAHRENHEIT
  RH     - RELATIVE HUMIDITY IN PERCENT
  WIND   - DIRECTION AND SPEED IN MPH
  PRES   - MEAN SEA LEVEL PRESSURE IN INCHES OF HG
  WCI    - WIND CHILL INDEX
  VSB    - VISIBILITY IN MILES
  HX     - HEAT INDEX
  TC     - TEMPERATURE IN CELSIUS
  VRB    - VARIABLE WIND DIRECTION
  N/A    - NOT AVAILABLE




USA.gov is the U.S. government's official web portal to all federal, state and local government web resources and services.